TimeCDT,TemperatureF,Dew PointF,Humidity,Sea Level PressureIn,VisibilityMPH,Wind Direction,Wind SpeedMPH,Gust SpeedMPH,PrecipitationIn,Events,Conditions,WindDirDegrees,DateUTC
12:53 AM,46.0,43.0,89,30.03,10.0,Calm,Calm,-,N/A,,Clear,0,2012-10-31 05:53:00
1:53 AM,46.0,43.0,89,30.03,10.0,Calm,Calm,-,N/A,,Clear,0,2012-10-31 06:53:00
2:53 AM,45.0,43.0,93,30.04,10.0,Calm,Calm,-,N/A,,Clear,0,2012-10-31 07:53:00
3:53 AM,45.0,42.1,90,30.03,10.0,Calm,Calm,-,N/A,,Clear,0,2012-10-31 08:53:00
4:53 AM,45.0,42.1,90,30.03,10.0,Calm,Calm,-,N/A,,Partly Cloudy,0,2012-10-31 09:53:00
5:53 AM,45.0,43.0,93,30.04,10.0,Calm,Calm,-,N/A,,Mostly Cloudy,0,2012-10-31 10:53:00
6:53 AM,44.1,42.1,93,30.04,10.0,Calm,Calm,-,N/A,,Partly Cloudy,0,2012-10-31 11:53:00
7:53 AM,45.0,43.0,93,30.06,10.0,Calm,Calm,-,N/A,,Clear,0,2012-10-31 12:53:00
8:53 AM,55.0,50.0,83,30.06,10.0,Calm,Calm,-,N/A,,Clear,0,2012-10-31 13:53:00
9:53 AM,64.0,55.9,75,30.07,10.0,Variable,3.5,-,N/A,,Clear,0,2012-10-31 14:53:00
10:53 AM,69.1,57.9,68,30.06,10.0,Variable,4.6,-,N/A,,Clear,0,2012-10-31 15:53:00
11:53 AM,71.1,57.9,63,30.04,10.0,Variable,6.9,16.1,N/A,,Clear,0,2012-10-31 16:53:00
12:53 PM,72.0,59.0,64,30.02,10.0,Variable,6.9,-,N/A,,Clear,0,2012-10-31 17:53:00
1:53 PM,73.9,57.9,57,30.00,10.0,Variable,6.9,-,N/A,,Clear,0,2012-10-31 18:53:00
2:53 PM,75.0,57.9,55,29.97,10.0,Variable,4.6,-,N/A,,Clear,0,2012-10-31 19:53:00
3:53 PM,75.9,55.9,50,29.96,10.0,Variable,5.8,-,N/A,,Clear,0,2012-10-31 20:53:00
4:53 PM,75.0,55.9,51,29.95,10.0,Variable,4.6,-,N/A,,Clear,0,2012-10-31 21:53:00
5:53 PM,71.1,60.1,68,29.96,10.0,Calm,Calm,-,N/A,,Clear,0,2012-10-31 22:53:00
6:53 PM,64.0,60.1,87,29.96,10.0,Calm,Calm,-,N/A,,Clear,0,2012-10-31 23:53:00
7:53 PM,62.1,59.0,90,29.98,10.0,Calm,Calm,-,N/A,,Clear,0,2012-11-01 00:53:00
8:53 PM,59.0,55.9,90,29.98,10.0,Calm,Calm,-,N/A,,Clear,0,2012-11-01 01:53:00
9:53 PM,63.0,57.9,84,29.99,10.0,Calm,Calm,-,N/A,,Clear,0,2012-11-01 02:53:00
10:53 PM,66.0,61.0,84,29.99,10.0,SSW,3.5,-,N/A,,Clear,210,2012-11-01 03:53:00
11:53 PM,64.9,61.0,87,29.99,10.0,SW,3.5,-,N/A,,Clear,220,2012-11-01 04:53:00